Theta_e
317 317 317 317 317 316 317 318 319 319 320 319 319 318 317 317 316 317 317 316 313 310 309 309 310 310 311 311 313 314 315 315 315 315 315 316 317 319 322 320 319 323 325 330 334 335 334 336 342 344 342 342 346 350 350 349 351 354 362 366 358 359 363 358 360 357 354 358 354 347 347 352 351 344 342 343 342 342 343 342 343 343 343 342 342 344 346 346
317 317 317 317 317 317 317 318 319 319 320 319 319 318 317 317 317 316 317 317 316 312 310 310 310 310 310 311 312 314 315 316 316 316 315 316 316 319 322 321 318 318 322 329 335 337 338 340 343 344 340 343 348 349 350 350 352 355 361 366 360 361 360 352 354 353 352 355 352 348 347 350 349 343 343 344 342 342 344 344 343 344 345 344 344 345 346 346
317 317 317 318 317 317 318 318 318 319 319 319 319 318 317 317 317 316 317 318 316 313 311 310 310 310 311 311 312 314 316 316 317 319 320 317 317 320 320 320 318 318 322 327 332 336 340 345 344 341 340 344 348 349 351 351 353 354 357 366 364 360 358 351 352 352 349 351 351 350 350 350 346 343 343 343 342 342 345 345 344 345 346 346 345 346 346 346
317 317 318 318 317 317 319 318 318 318 318 319 318 318 317 316 316 316 317 318 317 314 311 310 310 311 310 311 312 313 316 318 320 324 324 321 320 321 319 320 318 318 323 326 330 338 343 346 344 338 338 342 346 349 351 352 354 354 356 361 357 355 357 354 354 353 349 349 351 350 349 348 345 344 343 341 344 345 343 344 344 345 345 345 346 346 346 346
317 317 318 317 317 318 318 318 318 317 317 318 318 318 317 316 316 317 318 318 317 314 310 310 310 310 310 311 312 313 320 326 326 326 326 326 325 323 319 318 317 317 322 327 331 337 343 343 340 336 332 337 348 352 351 350 353 354 354 355 353 355 357 355 353 354 352 352 352 349 348 347 344 343 342 342 346 347 342 342 342 341 342 344 346 345 345 345
317 317 318 317 317 318 318 318 318 317 317 317 318 318 317 317 316 317 318 318 317 313 310 310 310 310 310 311 312 314 323 330 329 327 325 325 326 326 324 318 316 316 318 326 331 337 341 338 336 334 329 336 348 353 351 349 352 354 352 352 354 354 355 352 350 351 352 352 350 349 350 347 343 343 341 341 344 343 341 342 342 341 342 343 344 345 345 345
317 317 317 317 317 318 318 318 318 318 317 317 318 318 317 317 317 318 318 318 315 312 310 310 310 310 311 311 313 315 321 328 329 328 325 325 324 323 326 323 317 316 316 324 330 337 339 337 336 331 333 343 348 349 349 350 352 354 354 354 354 351 350 349 347 348 349 349 349 349 351 346 344 346 342 341 342 342 342 342 342 342 343 343 344 344 343 344
317 316 316 317 318 318 318 319 319 319 318 317 317 318 318 318 318 318 319 317 313 310 310 310 310 311 311 312 316 317 319 327 330 328 326 326 325 321 324 324 319 316 316 322 329 337 339 337 336 329 333 340 343 346 349 352 354 354 355 354 353 350 348 347 347 348 347 348 348 349 351 346 345 345 341 341 342 342 342 342 343 343 343 344 343 343 343 343
316 316 317 317 318 319 319 319 319 319 319 318 318 318 318 319 319 319 319 317 311 310 310 310 311 311 313 314 319 323 323 328 329 327 327 324 323 321 320 321 318 316 316 321 327 333 336 335 332 328 329 328 333 346 350 353 355 353 354 353 352 351 349 347 347 347 348 348 347 353 355 348 345 344 341 343 342 342 343 343 344 343 344 344 343 343 343 343
316 316 317 318 318 319 319 319 319 319 319 318 319 319 319 319 320 320 320 316 311 310 311 311 312 313 315 316 323 329 326 327 327 327 327 322 320 318 318 319 316 316 316 323 328 331 331 329 326 325 326 326 335 347 350 352 353 352 352 351 351 351 350 347 346 345 347 347 345 356 359 348 344 346 346 344 341 342 343 343 344 343 343 343 343 343 343 343
316 316 317 318 319 319 319 319 319 319 319 319 319 319 320 320 321 321 321 316 311 311 312 312 314 317 319 320 324 329 326 326 326 327 325 318 316 315 315 316 315 316 316 325 334 331 327 325 324 323 323 332 344 349 351 351 352 352 351 353 351 350 351 349 349 346 348 350 345 351 358 349 345 349 349 343 341 343 343 344 345 343 343 342 343 343 343 343
315 316 316 317 318 318 319 319 319 319 319 319 320 320 320 321 322 322 320 316 313 313 315 316 319 321 323 324 325 326 326 327 326 327 323 315 315 316 316 316 316 317 317 328 334 327 326 325 323 323 320 334 350 351 353 353 351 352 353 359 356 354 354 351 353 349 349 353 345 346 358 357 354 350 346 341 341 343 343 344 344 343 343 343 344 344 343 343
313 314 314 315 316 317 318 318 319 319 319 320 320 320 321 322 323 322 319 316 314 316 317 319 322 323 324 326 325 324 326 326 325 327 324 318 319 322 322 322 320 318 319 329 332 325 325 323 322 323 318 333 350 351 353 352 351 355 354 361 363 360 355 350 353 351 350 352 344 347 355 358 359 350 342 341 341 343 343 345 344 344 343 343 344 344 344 344
312 313 313 314 314 316 318 319 319 319 320 320 321 321 322 325 324 321 319 316 316 318 319 320 322 323 324 326 326 326 325 324 324 326 325 322 322 324 324 325 323 322 323 327 328 324 323 323 321 320 323 337 349 351 354 351 354 359 352 357 360 355 354 350 351 351 353 351 345 349 353 355 356 347 342 340 340 343 343 345 345 344 344 344 345 344 344 345
313 313 313 314 314 316 318 319 319 320 320 320 321 322 323 326 326 323 320 317 317 318 320 320 321 322 323 325 327 327 326 325 324 324 326 325 324 324 324 324 323 323 324 323 324 323 322 323 319 324 336 345 349 354 359 355 358 359 349 355 355 350 357 355 349 349 354 353 345 349 355 358 356 346 343 341 339 342 341 342 343 343 344 344 345 345 345 345
313 313 313 314 314 316 318 319 320 320 321 321 322 322 324 325 325 325 323 319 319 320 321 322 322 322 323 326 326 326 326 325 324 324 325 325 325 325 324 324 325 324 323 322 323 322 322 322 319 332 347 350 353 360 362 355 359 358 348 354 355 350 355 356 351 348 351 353 348 350 355 358 355 346 345 343 339 340 339 339 341 341 342 342 343 343 343 344
315 313 313 313 314 315 318 320 320 320 321 322 322 322 323 323 324 326 325 322 322 322 322 323 323 323 324 325 324 324 326 324 324 324 325 325 325 325 325 325 325 324 324 322 322 321 321 320 320 330 337 341 349 354 349 342 349 355 349 351 354 352 354 356 356 350 349 352 351 353 354 354 354 349 347 344 339 339 339 338 338 338 339 340 340 341 342 343
317 315 313 313 314 315 317 319 320 321 321 322 322 322 323 323 323 326 325 324 323 322 323 324 324 324 323 323 323 324 325 324 324 324 324 325 325 325 325 325 324 323 323 322 322 321 320 319 319 323 323 332 347 347 335 334 345 356 354 353 353 353 353 356 357 351 350 354 354 355 354 354 356 350 348 346 339 338 339 338 339 338 339 339 340 341 342 343
318 318 315 313 313 314 316 318 320 321 321 322 321 322 322 322 322 324 324 323 323 323 325 325 324 324 324 323 324 324 324 325 324 323 324 325 324 325 324 324 324 322 321 322 321 319 320 319 319 321 319 327 346 344 333 338 350 358 360 360 357 355 354 353 354 351 350 354 357 356 354 354 356 352 349 347 341 338 339 339 339 339 340 340 341 342 343 343
318 318 318 315 314 314 315 317 320 321 321 322 321 322 322 322 323 325 324 322 323 324 324 324 324 324 324 324 324 325 324 324 324 322 323 324 324 324 324 324 323 320 320 322 321 317 318 321 320 321 319 321 333 335 335 345 351 356 359 359 358 358 357 353 351 350 350 354 357 355 354 353 356 355 349 347 343 338 339 340 340 341 341 342 342 343 343 343
318 317 318 318 315 314 315 316 319 320 321 322 321 322 323 321 323 325 323 322 323 323 323 323 324 323 323 323 324 324 324 323 323 323 322 323 324 323 323 322 320 321 320 317 317 318 319 321 320 321 320 320 322 325 330 335 344 357 360 358 358 357 355 351 350 351 350 353 355 354 355 352 351 353 348 347 347 341 340 341 341 342 342 342 343 343 344 344
319 317 317 318 317 314 315 316 318 320 321 322 321 322 323 323 323 323 322 323 323 322 323 323 323 323 323 323 324 324 325 324 323 323 321 321 323 323 321 320 321 322 319 315 317 322 320 320 321 318 317 319 319 321 324 327 343 360 358 356 357 354 352 351 350 352 351 353 355 353 354 351 348 349 347 346 348 346 343 342 342 342 342 342 343 343 344 344
322 319 316 317 319 316 314 315 317 319 320 322 321 321 322 323 323 322 322 323 324 323 323 324 323 323 323 323 323 324 325 325 323 323 322 321 322 322 320 320 322 321 319 318 320 320 318 320 321 316 315 319 318 319 325 332 346 359 357 356 356 353 353 354 353 351 351 352 353 353 353 352 351 351 348 345 347 349 347 344 342 342 343 343 343 344 344 344
324 321 317 316 318 318 316 314 316 318 319 321 321 320 321 322 323 322 322 324 325 325 324 324 324 323 324 324 323 325 325 324 324 323 322 321 321 321 320 320 321 321 320 321 321 320 319 320 317 314 317 320 320 326 336 340 347 354 354 356 360 357 353 353 354 351 350 350 350 352 352 353 354 353 352 349 348 349 349 346 344 342 343 343 343 343 343 344
324 323 321 316 316 318 317 315 316 317 318 320 320 320 321 322 322 321 323 326 328 329 326 323 324 324 324 324 324 324 324 323 323 322 322 321 321 320 320 319 319 322 322 320 320 320 320 319 315 317 320 318 320 332 342 345 348 351 351 354 359 357 351 351 353 350 350 350 350 351 350 352 356 353 353 354 353 354 351 348 346 344 343 342 343 343 342 344
324 324 323 318 316 317 317 317 317 316 318 319 318 320 320 322 323 321 326 332 333 332 327 323 323 323 323 324 324 322 322 323 322 322 322 322 321 320 320 319 318 322 323 319 320 321 321 319 317 319 319 318 319 322 334 344 348 349 350 352 354 354 351 351 353 351 351 350 349 351 349 350 354 353 352 354 356 358 354 350 348 345 344 343 342 343 342 343
324 324 323 321 317 314 316 318 317 316 316 316 317 319 319 321 322 320 327 334 334 330 325 322 321 321 322 321 322 322 322 323 322 321 322 321 322 320 321 321 319 320 320 318 320 321 321 320 319 320 318 320 319 316 328 342 347 349 349 351 355 354 352 351 352 353 350 349 349 351 350 348 352 354 352 351 354 356 355 354 351 347 345 344 343 343 343 343
325 324 323 321 319 315 315 316 318 317 314 315 317 318 320 322 321 323 329 331 329 324 322 321 321 321 321 320 321 322 322 323 322 321 321 321 322 320 321 321 321 322 320 318 321 321 321 322 324 325 321 321 320 319 330 340 347 349 346 350 353 351 350 351 353 352 349 349 350 351 350 348 351 355 353 352 352 352 352 352 350 348 347 345 343 343 343 343
324 324 323 320 318 316 313 315 319 317 314 315 315 317 321 319 320 327 332 330 325 322 321 321 321 321 320 320 320 321 321 321 322 322 321 321 321 320 321 319 319 322 319 318 323 323 321 321 322 325 324 322 323 324 331 345 352 348 345 347 347 346 350 353 354 353 351 352 350 349 349 347 351 356 353 351 351 349 349 348 347 347 348 347 344 343 343 344
323 323 322 319 318 315 313 315 318 317 315 314 315 319 319 321 330 332 328 328 325 321 320 319 321 320 319 321 321 320 321 321 322 321 321 322 321 320 321 320 319 322 324 322 323 323 320 319 322 323 320 324 331 333 338 348 350 346 347 347 346 350 353 354 355 351 348 352 349 346 349 347 348 356 356 351 351 350 347 346 346 345 347 348 346 344 343 344
321 321 320 318 316 314 313 314 317 318 315 313 316 319 318 325 338 332 324 326 324 321 321 320 321 320 320 322 321 321 320 320 321 321 322 322 321 321 320 321 321 324 332 330 322 323 322 320 322 323 322 331 340 342 343 346 346 348 353 349 346 351 351 350 353 350 347 350 348 345 349 347 346 357 363 356 353 353 349 347 346 344 345 347 346 346 344 343
317 318 318 316 313 313 313 313 318 319 315 315 317 319 323 323 324 326 328 327 325 324 322 320 321 321 321 320 321 322 320 320 320 322 325 323 322 324 321 324 325 321 326 328 321 324 327 323 321 319 324 336 346 346 342 345 348 348 350 350 348 348 348 350 351 349 348 345 344 347 350 348 347 353 358 355 353 352 349 345 344 342 343 346 346 347 345 344
314 315 315 314 312 314 314 314 318 318 315 318 317 321 330 323 319 326 330 328 326 324 320 319 321 321 321 320 322 323 321 321 321 321 324 322 322 325 322 324 326 319 321 323 320 323 327 325 323 320 321 330 342 350 347 347 349 347 346 346 349 349 350 354 350 343 344 344 344 348 350 349 347 347 351 352 349 349 348 345 345 343 342 344 345 346 347 346
312 313 312 312 315 318 318 317 319 318 315 317 318 323 325 320 324 331 330 330 329 323 320 321 321 321 320 320 323 323 320 322 323 321 323 323 321 324 324 321 321 322 324 322 320 322 321 321 323 320 319 321 330 341 347 348 346 346 344 341 346 352 351 349 347 343 343 346 346 346 347 350 349 345 349 350 347 349 350 348 348 346 344 343 343 345 347 346
312 312 311 314 319 322 320 318 319 317 315 318 324 327 322 319 324 327 328 330 327 322 322 320 320 320 319 320 322 321 319 321 323 322 322 323 322 326 329 323 321 325 324 321 323 322 318 321 324 320 318 320 320 326 337 348 346 339 336 337 339 347 349 338 338 347 347 346 349 346 347 353 351 347 348 348 348 349 349 349 349 348 346 345 344 345 346 346
311 311 313 318 322 323 321 318 317 315 316 319 322 323 321 322 322 322 326 327 321 322 324 321 321 319 317 320 321 320 319 319 322 322 321 322 322 324 327 325 323 323 322 324 326 323 319 322 325 323 322 322 319 320 328 339 345 338 335 340 337 338 351 342 334 344 344 340 344 344 347 354 350 345 350 352 353 353 352 350 349 349 347 346 346 346 346 346
310 311 315 321 324 321 319 318 315 314 317 319 322 326 326 323 320 323 328 323 319 323 323 322 323 318 315 318 322 323 321 318 319 321 320 320 320 322 323 322 321 321 322 324 323 323 322 321 323 326 327 323 319 321 323 324 333 339 337 341 332 327 342 342 336 343 341 337 344 344 348 353 346 344 354 357 355 357 357 353 349 349 349 347 347 346 346 347
310 311 317 323 323 319 318 318 315 315 316 317 325 333 330 322 317 320 323 320 319 323 322 323 323 319 317 317 320 323 320 317 319 321 321 319 320 322 322 322 321 319 320 320 320 323 324 322 323 326 325 324 325 326 325 322 325 331 332 330 325 324 330 331 332 341 340 338 344 346 346 348 347 351 360 360 359 359 359 356 353 351 350 349 348 346 346 346
311 313 319 323 323 320 320 320 316 314 316 318 326 330 325 323 321 319 320 320 320 321 323 324 322 320 319 318 320 321 319 318 320 321 320 318 319 321 321 322 321 319 317 318 322 326 326 323 321 325 324 324 331 332 328 328 325 324 327 328 329 333 332 329 330 334 338 340 342 342 342 347 352 356 360 361 358 355 356 359 356 352 351 351 350 348 346 346
312 315 321 323 322 320 319 318 314 314 317 320 326 327 321 320 321 318 319 320 319 320 323 323 320 319 321 321 320 319 319 321 321 320 320 319 319 320 321 322 322 321 318 318 325 327 327 325 322 328 330 324 329 334 334 336 330 327 331 329 330 332 329 329 330 330 335 342 344 340 339 350 357 353 354 356 351 350 354 356 353 350 351 352 350 350 348 347
314 318 323 323 320 317 316 315 314 317 322 321 320 323 320 319 320 319 320 320 319 319 320 321 321 321 321 321 321 319 321 324 322 320 321 320 319 320 321 322 323 323 320 321 328 326 325 329 327 328 331 326 328 332 333 333 331 334 338 331 331 333 329 330 330 330 336 341 344 341 340 352 356 347 348 350 345 347 350 350 350 350 350 350 350 350 349 349
315 317 322 323 318 313 314 317 317 318 323 321 318 319 321 321 321 320 318 318 319 319 318 320 321 321 321 321 320 320 323 325 323 321 321 321 322 322 322 322 320 322 323 324 327 325 329 340 335 329 332 332 330 327 324 324 327 332 334 332 334 335 337 339 334 332 336 336 339 338 339 349 349 342 347 347 343 346 348 348 350 349 349 349 349 350 350 349
317 317 322 324 318 314 316 320 321 321 324 323 319 319 319 319 320 320 318 317 318 318 317 319 319 320 321 319 318 319 321 322 323 322 323 323 325 323 321 321 321 323 324 325 325 326 333 341 334 331 341 344 336 332 327 326 329 329 330 333 332 332 339 345 342 341 339 337 340 336 336 347 348 343 347 346 344 346 347 348 349 347 349 349 348 350 349 349
318 318 322 325 323 319 319 321 323 327 332 328 325 325 324 320 318 318 318 318 318 318 318 319 319 318 319 318 318 320 319 319 320 322 323 324 324 322 319 321 323 323 323 326 328 325 325 332 331 326 331 332 330 332 333 330 332 332 333 335 334 336 339 336 338 342 337 337 342 337 338 348 347 344 348 347 345 347 345 347 348 347 348 348 349 350 349 348
321 324 323 323 324 322 321 323 323 327 332 330 331 332 328 324 322 321 320 318 318 317 318 320 319 316 318 318 318 321 320 318 320 321 322 322 323 321 319 321 323 323 322 322 325 326 327 335 340 331 323 322 324 329 336 337 332 330 334 336 335 340 339 331 334 337 333 334 337 336 342 350 348 345 349 348 347 348 347 346 347 348 347 347 349 349 349 349
324 330 329 326 325 321 321 322 321 326 331 331 334 334 327 325 325 323 321 318 317 317 316 318 318 317 318 318 318 321 321 319 320 323 324 324 323 321 320 321 320 320 325 321 320 332 337 340 350 347 332 328 333 339 342 341 332 327 331 335 337 340 339 335 335 335 337 338 338 344 350 353 356 353 347 347 347 348 349 347 346 347 346 346 349 348 348 348
325 329 328 328 328 326 324 321 320 324 327 326 331 330 325 325 326 325 324 322 321 321 317 317 319 320 320 319 319 321 322 322 323 322 324 324 323 322 320 322 323 326 331 323 318 334 338 329 337 346 337 332 339 340 337 336 331 330 333 334 336 341 340 335 333 336 339 336 337 352 354 350 360 361 349 347 347 346 347 347 346 347 345 345 348 348 348 348
326 327 324 325 328 329 328 324 322 324 325 325 330 330 325 327 328 327 327 325 323 323 322 323 325 324 323 320 319 321 323 323 323 322 324 324 323 326 324 322 326 331 330 322 320 334 338 326 326 332 331 332 335 334 333 335 333 336 341 339 339 343 340 335 337 341 339 333 336 349 352 352 362 362 351 347 346 344 345 345 345 346 345 345 347 348 348 348
324 325 323 323 325 324 324 323 322 324 327 327 331 331 326 327 328 326 325 325 325 325 323 325 328 327 325 323 324 327 324 320 321 323 327 325 322 327 328 324 325 326 325 323 323 325 329 329 330 330 326 328 333 333 334 336 333 334 341 342 343 347 344 342 348 347 338 339 346 346 348 357 358 352 348 346 344 344 344 344 346 345 345 346 346 347 348 348
322 324 323 322 324 323 323 323 323 326 329 329 329 328 326 328 328 325 325 324 326 327 324 325 327 327 326 326 328 330 325 322 323 324 325 325 324 328 331 328 328 325 322 326 326 322 321 325 335 338 327 324 334 338 339 341 336 331 334 340 346 349 345 345 353 349 339 344 353 347 348 359 353 343 345 345 343 344 345 344 346 345 345 346 346 346 347 347
321 322 322 323 326 325 324 324 322 324 329 331 330 328 327 329 326 325 327 325 323 326 326 324 326 328 329 331 331 328 324 323 325 323 324 323 322 326 327 325 327 328 326 325 324 328 331 328 333 339 327 322 331 335 337 341 338 331 333 341 348 350 347 348 352 349 343 348 352 345 347 359 352 341 343 343 342 343 344 345 346 345 345 345 345 346 346 346
319 321 322 322 325 325 325 325 324 322 324 327 326 325 327 328 325 324 330 329 323 324 325 323 323 328 332 332 328 325 323 324 324 322 323 323 321 322 321 320 324 326 327 329 327 334 343 336 331 334 328 325 331 335 339 342 336 333 339 344 349 352 349 347 347 346 346 351 353 346 346 352 346 340 342 343 342 343 344 345 346 346 346 345 345 346 345 346
Wind_Speed
7 8 9 10 11 12 13 14 15 15 16 17 17 16 15 15 14 14 13 12 9 6 5 4 4 4 4 5 6 7 7 7 6 6 6 7 10 11 10 9 9 11 11 11 11 10 10 8 7 4 1 2 4 5 6 5 4 3 2 3 2 2 2 3 4 3 2 1 3 4 4 4 3 9 11 7 10 16 12 3 8 7 2 9 15 18 22 18
6 7 9 10 11 13 14 14 15 15 16 17 17 16 15 14 14 14 13 13 11 8 5 4 4 3 4 4 5 7 7 7 7 5 4 7 11 12 12 11 10 10 11 11 10 9 9 9 8 5 2 2 3 4 4 3 2 1 2 2 1 3 2 3 4 4 2 1 3 5 6 4 5 13 14 7 8 12 8 5 9 8 7 13 17 21 20 18
6 7 8 10 11 13 14 15 15 15 16 16 17 16 15 13 14 13 13 14 12 9 6 3 3 3 3 3 4 6 6 6 6 3 3 7 11 12 12 11 10 11 10 10 10 9 8 8 8 4 3 2 2 3 4 3 2 0 2 2 2 3 1 1 1 4 3 1 1 3 7 6 8 16 15 10 9 7 6 9 10 12 15 18 22 23 20 19
5 7 8 9 11 12 13 14 15 15 16 16 16 16 14 13 13 13 14 14 13 10 6 3 2 2 2 2 3 4 3 3 2 3 5 7 9 9 10 9 10 11 11 11 11 10 8 9 8 4 2 2 2 3 3 2 1 0 1 1 2 0 2 3 3 3 4 3 0 2 7 6 10 15 16 16 10 1 8 16 13 16 22 24 26 23 20 20
5 7 8 9 10 12 13 14 15 16 16 16 15 15 15 13 13 13 14 14 13 11 6 3 2 2 2 1 2 3 1 1 3 7 7 7 7 7 7 8 10 11 12 13 12 12 10 10 9 5 3 2 1 1 2 4 2 1 1 1 1 1 1 4 3 2 3 4 1 2 5 5 10 13 20 22 10 7 16 20 16 18 24 26 26 24 22 20
5 7 8 9 11 12 13 13 15 16 16 16 15 14 14 13 13 14 14 15 14 10 6 2 1 2 1 0 2 4 2 2 6 7 5 5 5 6 7 8 10 11 13 13 13 14 12 10 8 5 2 1 2 3 1 4 5 1 2 2 5 3 1 5 5 4 1 3 2 1 2 2 9 9 20 25 13 13 18 19 17 18 22 24 24 23 22 21
6 8 8 9 11 11 13 13 14 16 16 16 15 14 14 13 13 14 15 15 13 9 4 2 1 2 1 2 2 4 2 3 6 4 2 3 3 6 8 8 11 12 14 14 15 15 13 11 9 5 1 1 3 5 2 5 6 2 2 1 6 7 6 6 7 9 5 6 7 3 2 3 10 7 16 18 8 10 14 17 18 19 22 23 23 22 21 19
7 8 9 10 11 12 13 13 14 15 16 16 15 14 13 13 13 14 16 15 12 7 3 3 2 2 2 3 3 2 3 2 3 3 3 0 2 5 8 10 12 13 13 14 14 14 13 11 9 6 2 2 4 4 5 6 3 2 1 1 4 6 7 5 3 5 5 8 8 3 2 3 9 9 14 11 6 9 15 18 18 21 24 22 22 21 20 19
8 8 10 11 11 12 13 14 14 15 15 16 15 14 14 13 13 14 16 15 11 5 3 3 3 3 3 2 2 2 3 2 2 2 4 2 3 5 8 10 12 13 13 13 13 12 11 9 7 4 4 5 4 2 8 5 1 3 3 3 5 4 5 4 2 2 3 8 8 4 5 3 4 8 8 5 10 15 17 20 21 24 24 23 22 21 20 19
9 9 11 12 12 13 14 15 15 15 15 15 15 15 15 14 13 14 15 13 8 5 4 5 4 4 3 2 3 2 3 3 2 2 5 3 1 4 7 10 11 13 14 14 14 12 7 3 3 6 7 6 3 3 8 3 2 8 9 9 9 5 4 4 2 3 5 9 10 5 4 8 3 4 3 5 16 19 19 22 23 24 24 24 23 21 21 18
9 10 12 13 13 14 15 16 15 15 15 15 14 15 15 14 14 14 14 11 7 6 6 5 5 4 4 2 1 2 3 3 2 3 4 3 2 2 5 7 10 12 14 15 14 9 3 3 7 8 4 2 2 3 5 3 6 13 13 9 8 6 6 6 2 1 2 6 9 6 3 10 8 2 5 14 21 21 23 25 25 25 23 24 23 22 22 19
10 11 12 14 15 16 16 16 16 15 15 14 14 15 15 16 15 12 10 8 6 6 6 5 5 5 5 3 1 1 3 2 1 2 3 3 7 7 6 5 6 9 12 15 12 4 1 6 9 8 4 1 2 2 4 5 8 9 8 4 3 3 5 7 3 2 1 2 4 6 4 5 4 7 8 22 24 23 25 26 27 25 24 25 24 24 22 20
11 12 13 14 15 16 16 16 16 16 15 14 15 16 17 16 12 8 7 6 6 6 6 6 6 7 7 3 1 2 2 2 2 2 2 4 8 9 9 7 6 7 9 12 9 2 4 6 8 9 5 1 2 4 5 6 6 4 3 3 2 4 3 5 5 3 2 2 2 3 2 3 4 7 11 24 25 25 25 26 28 26 26 26 25 24 22 21
13 13 13 14 15 17 16 16 16 15 15 15 16 17 17 13 9 7 6 5 4 5 6 7 8 8 8 4 2 4 4 4 3 3 3 5 7 7 8 7 7 8 8 9 7 4 3 4 7 8 4 2 6 7 5 4 4 1 2 2 2 1 2 5 5 3 3 1 1 1 1 4 4 4 10 23 25 27 26 25 27 26 26 26 25 25 23 22
14 14 14 15 16 17 16 16 15 15 15 16 17 19 16 13 11 9 7 5 4 5 6 8 8 9 10 5 3 5 6 5 3 3 4 4 4 4 5 5 4 5 6 7 7 4 3 4 6 5 2 6 9 7 2 3 3 2 1 2 2 1 2 6 4 3 2 1 0 1 2 3 4 6 6 17 23 26 25 24 24 24 25 25 25 25 23 22
15 14 14 14 15 16 16 16 15 15 15 16 19 19 14 12 11 9 7 6 6 7 8 9 9 9 8 3 1 4 6 5 1 3 5 5 5 3 4 2 1 1 3 5 5 4 3 4 3 1 6 7 6 5 4 3 3 3 1 2 2 1 1 4 3 2 3 1 0 1 2 1 4 6 4 13 21 23 22 21 22 23 23 24 25 25 24 23
17 15 14 14 14 14 15 15 14 14 14 16 18 16 13 12 10 7 5 6 9 11 12 12 11 10 6 1 1 2 3 4 1 5 6 7 6 4 3 2 2 3 3 4 4 3 2 1 1 3 3 3 2 4 4 2 4 3 1 1 2 2 1 1 2 2 3 2 2 2 2 2 4 4 1 12 22 20 19 20 21 22 22 24 24 24 24 24
19 17 15 14 13 13 14 14 13 13 13 14 16 14 12 11 9 4 2 8 13 12 11 9 6 5 3 3 1 3 6 6 4 6 8 8 6 4 4 3 3 4 2 3 3 3 3 1 1 1 2 1 2 5 3 3 4 3 2 1 2 1 2 2 2 1 1 1 2 2 2 4 5 4 4 8 22 21 18 21 21 21 22 23 24 24 24 25
21 19 17 15 14 13 13 13 12 11 11 12 14 13 9 10 7 1 4 14 14 7 4 4 2 2 3 5 6 7 9 5 6 8 9 8 6 5 5 4 5 4 2 3 1 2 4 1 3 0 2 3 4 5 5 5 5 5 5 3 2 2 2 2 1 1 1 1 2 3 2 2 3 3 6 1 18 23 19 20 20 19 21 22 23 24 25 25
22 21 18 16 14 13 13 12 11 10 10 10 13 11 8 11 6 2 13 17 9 5 7 8 8 10 10 10 9 8 6 3 8 9 9 9 7 6 5 5 5 2 2 3 2 1 3 2 2 6 6 5 6 7 5 4 4 5 4 3 3 1 1 1 1 0 2 0 1 2 2 2 3 3 7 8 10 21 18 16 17 19 21 23 24 24 25 25
23 22 20 17 14 13 13 12 10 9 9 9 11 9 7 10 5 5 15 14 9 12 13 10 9 12 13 11 9 7 5 2 8 10 9 10 9 6 5 4 1 1 1 1 2 1 3 3 6 8 7 6 6 6 4 3 2 4 4 3 3 1 1 1 1 1 1 1 1 1 1 1 3 4 8 11 3 14 17 17 18 20 21 23 24 24 24 23
24 23 21 19 15 13 13 12 10 9 8 7 8 7 8 8 7 8 9 9 16 19 14 11 11 13 12 9 9 7 4 3 7 11 10 10 11 8 5 4 3 2 2 2 2 3 3 3 11 9 7 6 3 4 6 4 2 3 3 3 2 1 1 1 1 1 1 1 1 2 2 1 2 4 9 12 6 5 12 18 20 22 22 22 24 24 24 23
24 24 23 20 17 14 12 12 11 9 7 5 6 6 7 8 9 11 7 6 15 19 13 11 11 11 10 8 8 7 8 6 7 10 12 13 13 10 7 5 4 3 1 2 4 1 0 6 9 6 8 6 2 3 6 4 2 2 3 3 2 3 2 0 1 2 2 1 1 2 2 2 1 4 8 11 9 4 5 13 17 22 24 24 25 25 25 25
25 24 24 22 19 16 13 12 11 9 8 6 5 4 5 8 9 12 9 4 8 11 8 6 7 9 9 6 5 7 8 9 7 7 12 17 14 9 7 6 4 2 3 4 7 5 6 9 4 6 8 7 4 3 6 5 2 2 4 4 3 5 4 1 2 2 2 1 2 3 2 3 2 4 5 6 5 4 3 8 12 17 22 23 24 25 26 26
25 25 25 23 20 17 14 11 8 8 8 6 5 5 5 8 10 12 8 2 4 6 4 3 5 7 7 4 5 6 5 8 10 8 12 19 16 8 4 6 5 2 6 5 6 4 8 11 5 5 5 7 6 4 5 6 2 2 4 7 5 7 8 5 5 3 1 1 0 2 1 3 3 5 7 3 2 3 3 4 10 14 18 20 21 24 26 25
25 26 25 24 22 19 14 9 7 8 8 6 5 5 6 8 10 11 5 3 3 5 2 2 3 3 5 5 6 6 1 4 9 10 13 17 17 9 3 3 3 3 5 5 3 3 5 5 2 5 5 6 5 4 5 7 5 1 5 7 8 9 10 8 6 3 1 2 2 1 2 2 3 4 7 3 2 5 4 4 7 12 17 19 22 25 25 25
25 26 26 25 24 21 16 11 11 10 8 7 6 6 6 7 9 9 4 4 3 3 1 3 3 2 4 5 8 8 1 2 3 8 15 16 16 13 5 2 1 3 4 4 1 2 3 2 3 4 4 5 5 5 6 8 7 2 4 8 12 10 10 8 5 2 2 2 1 0 2 1 3 4 6 6 5 6 5 6 7 11 16 19 22 25 26 26
26 26 27 26 24 23 18 14 13 10 8 8 7 7 4 5 8 6 3 3 2 1 1 3 3 3 3 5 11 9 1 1 2 5 14 15 13 11 5 5 5 4 3 5 2 5 2 1 1 5 5 2 5 5 8 11 6 2 3 10 10 9 9 7 4 2 0 2 1 2 1 0 3 4 1 5 6 8 8 8 8 11 16 19 23 25 27 27
26 26 28 27 25 23 18 15 12 9 7 8 7 5 3 4 6 3 4 1 2 1 0 2 3 4 3 4 10 10 3 1 1 3 10 12 13 9 2 6 6 3 3 3 4 6 3 4 5 6 4 4 4 2 8 9 5 4 10 12 9 9 8 5 4 2 1 3 1 4 3 1 4 4 1 3 6 9 10 8 8 12 17 20 23 26 27 28
26 26 28 28 27 24 19 14 9 7 6 6 6 4 1 2 2 4 1 2 1 1 1 1 2 2 4 3 3 6 4 3 1 5 7 8 11 9 2 4 3 3 1 2 3 7 5 4 4 3 4 4 3 4 5 11 11 11 11 10 8 6 5 4 2 1 3 2 3 4 5 3 2 4 2 3 5 6 7 6 8 12 16 19 23 26 28 28
27 26 27 28 26 24 21 15 8 5 5 5 7 5 2 0 4 4 2 2 1 2 3 2 2 1 3 3 2 3 2 3 2 6 4 2 4 4 1 1 0 2 3 5 3 6 6 1 3 4 5 7 9 7 7 12 12 8 5 6 5 4 3 3 3 3 3 2 5 3 3 4 1 4 3 4 4 3 5 7 9 12 16 20 22 25 27 29
28 27 26 26 25 23 20 14 9 7 5 7 9 7 4 1 1 2 3 2 1 2 1 1 1 2 1 2 2 3 1 2 2 4 4 2 2 3 3 4 3 2 3 2 2 5 5 3 2 2 3 8 9 7 6 4 4 5 5 5 5 3 2 2 3 2 1 3 3 0 3 2 4 6 5 6 6 5 6 7 9 14 20 23 23 24 25 27
29 28 26 23 22 20 15 11 10 8 8 11 10 6 6 4 2 5 3 2 1 2 1 1 2 2 2 1 3 4 2 2 3 2 3 3 2 3 3 4 5 3 2 2 1 4 4 5 5 4 0 3 6 7 4 1 1 5 5 4 4 3 2 1 2 1 2 3 3 1 2 1 4 5 4 6 6 5 6 8 9 11 18 23 24 23 24 24
28 28 26 21 16 15 12 9 10 9 12 15 10 5 5 2 4 4 2 3 2 2 0 0 3 3 2 3 4 3 2 3 2 3 2 2 2 2 4 3 4 4 2 1 1 1 1 3 3 1 1 0 3 5 6 5 4 3 2 4 4 4 4 3 3 2 2 2 2 1 1 2 2 3 3 4 4 4 4 5 6 8 13 20 23 23 23 23
27 25 23 15 10 11 10 9 11 13 18 17 8 5 4 4 4 2 3 3 1 2 3 2 1 2 1 3 4 3 4 3 1 4 2 2 3 4 3 4 4 4 4 2 3 1 2 2 5 4 2 4 3 4 6 6 4 1 1 4 1 3 4 3 2 4 4 1 0 0 2 4 4 3 3 2 2 2 3 4 4 5 8 14 20 23 24 24
25 21 17 10 9 12 10 11 13 17 22 17 6 2 5 4 3 3 2 1 0 1 3 4 3 3 2 3 3 3 3 3 1 3 1 2 3 4 3 4 6 7 6 4 3 1 3 1 6 4 2 2 5 7 6 5 4 1 1 2 4 3 6 5 1 1 3 2 1 1 3 4 3 3 3 1 1 2 2 3 4 5 6 9 14 19 24 27
23 19 14 10 11 10 8 12 13 20 24 14 4 4 5 3 5 4 1 0 1 1 3 3 1 1 2 1 3 4 1 1 2 2 2 2 2 4 4 3 6 10 8 5 3 3 4 0 6 3 6 4 2 8 6 3 6 5 2 5 4 1 4 4 2 3 3 1 2 1 3 4 2 2 4 3 2 3 3 3 4 6 7 10 12 14 19 24
23 17 12 11 9 2 6 9 13 21 20 8 2 4 3 2 5 4 1 0 0 2 4 1 2 1 0 1 3 3 1 2 2 3 3 2 3 4 4 3 5 10 11 6 2 0 5 2 6 2 2 3 4 8 5 4 4 5 4 4 3 2 0 1 2 1 1 1 3 3 3 3 3 3 3 2 3 5 4 3 3 4 6 9 12 13 15 19
21 13 9 11 6 3 6 8 16 20 12 4 4 3 2 3 4 4 4 2 1 2 1 3 2 1 0 2 3 3 2 4 3 3 3 2 3 3 2 3 3 6 9 8 4 0 3 3 3 4 2 2 5 4 2 2 3 3 2 2 2 2 3 2 2 2 2 2 2 3 3 3 5 5 3 5 5 4 4 3 2 4 5 6 9 12 15 18
17 9 6 10 6 5 7 11 15 13 5 3 4 2 1 2 4 6 6 4 2 2 2 3 2 1 3 3 2 2 2 3 5 3 2 3 3 3 3 4 2 1 4 7 4 1 3 4 2 4 4 2 1 1 4 4 2 2 2 1 1 1 2 2 1 1 3 3 3 1 1 5 5 3 4 5 5 3 4 3 1 4 6 6 6 8 13 17
12 5 4 8 5 7 10 11 8 4 2 2 2 2 2 2 2 5 7 7 5 5 6 5 4 3 3 2 3 3 1 2 3 3 2 3 3 3 4 5 5 4 5 5 3 2 1 2 3 1 4 1 3 4 3 5 5 4 3 3 3 2 3 3 1 2 1 3 3 4 2 6 5 1 2 4 3 1 3 3 1 2 5 6 6 5 8 14
9 2 3 5 3 9 8 5 2 1 3 2 2 3 2 2 2 3 5 6 6 6 6 4 4 4 4 4 5 3 2 2 2 2 3 4 5 4 4 6 8 6 6 4 2 3 3 3 4 0 1 3 6 5 2 4 4 4 2 3 4 3 4 5 2 3 0 2 1 3 1 5 4 1 1 2 1 1 3 2 1 1 3 5 7 6 5 9
10 5 1 4 5 8 4 1 2 1 1 2 2 3 3 2 2 2 3 4 4 4 3 3 4 4 4 5 4 3 3 3 3 3 2 3 5 6 5 9 10 5 5 3 2 1 2 4 4 1 4 4 6 5 1 1 3 3 1 1 2 2 3 5 4 3 3 2 2 2 1 5 4 2 1 2 2 0 2 1 2 1 2 3 5 6 5 6
14 9 1 3 1 7 4 1 1 1 3 3 3 3 4 3 3 3 3 3 4 3 2 2 4 5 4 4 3 3 4 3 2 3 2 3 3 5 6 12 10 3 3 4 5 4 1 1 4 3 3 5 6 6 5 4 1 1 1 2 0 3 5 3 2 3 1 3 4 4 3 6 4 2 2 1 3 2 1 2 2 1 2 4 4 5 5 4
12 7 3 5 2 6 4 2 2 2 1 3 3 3 3 2 3 5 6 7 7 5 3 4 4 5 4 2 2 2 2 2 2 2 1 1 2 2 5 12 7 1 4 8 10 9 4 2 4 5 3 2 2 2 3 3 1 0 1 2 1 4 5 2 2 3 0 3 4 4 4 5 4 3 3 3 2 4 4 3 2 2 2 4 4 3 3 2
7 3 4 6 5 7 7 7 5 2 1 2 2 2 1 2 5 8 5 5 6 5 6 6 4 2 2 1 1 3 2 1 1 1 1 2 2 2 3 9 4 2 5 11 11 8 4 2 3 6 7 6 6 7 5 2 2 0 1 1 1 2 4 4 3 2 3 3 1 4 5 2 5 5 5 5 4 4 4 2 2 3 2 3 3 2 2 1
4 2 2 4 5 5 5 8 10 5 1 1 0 1 1 2 4 6 4 2 5 4 4 4 1 1 1 1 2 3 3 0 2 1 2 2 2 3 1 3 1 1 9 10 6 4 5 2 3 6 6 6 6 6 3 2 3 3 3 1 1 2 5 5 3 4 4 4 3 7 4 2 6 6 7 7 5 4 4 2 3 4 4 3 3 4 3 4
3 2 2 2 3 1 1 6 10 7 4 2 2 1 2 2 3 4 4 6 8 6 2 1 3 3 2 3 3 1 2 0 1 1 1 1 0 2 4 4 3 3 7 5 2 3 6 2 3 5 3 2 4 3 2 1 2 2 3 4 3 3 5 5 5 5 6 4 5 5 6 5 7 4 4 6 5 4 3 1 3 4 4 3 3 5 6 7
3 2 3 3 2 3 4 8 9 6 4 3 1 2 2 2 3 2 3 4 6 5 3 2 5 7 6 2 4 3 1 1 1 2 1 1 0 2 2 1 2 3 4 3 3 2 4 2 3 3 2 1 0 2 2 3 1 1 0 3 2 3 4 4 3 4 5 4 4 4 6 7 6 2 3 5 5 4 3 1 2 3 3 3 4 6 7 8
4 2 4 5 4 5 6 7 5 4 4 2 1 1 2 1 3 4 3 2 2 5 4 2 7 8 4 2 3 5 3 6 4 3 3 3 0 2 3 3 2 2 3 3 2 2 3 2 1 3 3 2 3 2 4 5 3 1 3 4 1 1 2 1 1 2 3 2 1 3 1 6 5 3 5 6 5 3 2 2 1 3 5 7 7 7 7 8
2 3 4 4 3 3 4 4 2 1 2 2 1 2 3 2 2 4 4 5 5 3 4 5 8 7 2 3 3 3 3 5 6 9 8 5 5 5 3 4 7 4 2 2 1 2 3 2 1 4 4 2 4 3 3 4 5 2 4 6 1 3 2 2 2 3 5 3 2 3 0 5 4 4 7 7 6 4 3 3 3 4 7 9 10 10 8 8
2 3 2 1 2 2 2 3 2 1 1 1 2 2 3 5 5 5 3 4 4 4 5 7 6 5 1 2 2 5 13 14 14 17 17 14 15 13 8 7 12 10 4 4 2 1 4 5 2 3 3 4 5 2 1 4 6 3 5 5 6 4 3 3 3 4 5 5 4 3 4 4 3 7 7 6 6 6 6 6 6 7 9 10 11 11 8 6
Wind_Direction
47 34 26 24 24 25 25 22 19 15 10 5 360 358 359 2 3 3 0 358 355 344 324 303 282 268 259 250 248 253 255 258 258 249 233 199 189 182 170 170 171 172 179 183 183 185 183 178 189 204 263 344 341 339 344 328 307 330 37 84 115 164 192 185 177 182 140 145 210 207 177 129 103 149 140 127 136 137 144 119 159 186 324 180 171 159 166 168
40 29 21 18 19 21 22 20 17 12 8 3 358 355 355 357 360 1 359 356 352 345 332 314 298 278 262 253 247 250 255 258 264 258 224 188 186 187 185 183 174 172 180 184 188 191 185 179 184 195 219 314 322 317 336 327 326 12 84 74 181 195 224 199 173 176 149 124 186 196 187 173 158 157 151 137 140 139 127 108 140 139 124 156 161 162 170 171
29 21 17 16 16 16 17 17 14 8 5 3 358 355 357 356 357 359 358 356 351 344 335 321 307 286 264 253 242 249 259 264 270 259 186 175 181 186 188 184 173 173 177 177 187 193 183 180 184 187 202 252 289 291 328 334 332 7 99 54 240 229 240 285 231 214 222 194 114 166 185 194 178 168 164 152 152 153 144 144 142 139 143 154 161 167 174 175
18 13 11 12 12 13 13 13 11 6 4 4 360 358 0 358 356 358 356 353 349 343 336 327 310 290 273 253 240 244 261 281 250 158 142 155 173 187 187 181 174 177 177 172 181 184 176 181 190 196 206 253 271 272 306 272 287 13 110 144 245 253 73 355 328 259 248 224 318 123 161 180 177 174 167 148 139 223 203 180 167 161 161 161 166 172 177 179
9 6 6 4 6 9 11 11 9 7 5 4 3 1 3 2 358 357 354 351 347 342 336 331 311 300 290 250 232 197 114 43 158 142 129 138 160 186 190 187 181 183 183 175 179 180 175 182 191 204 225 265 248 240 273 217 198 37 354 216 359 48 83 353 347 277 258 208 245 119 131 162 167 168 166 156 154 214 209 196 184 175 170 167 170 174 179 183
3 1 359 357 2 5 7 8 8 7 4 3 4 2 4 4 359 355 354 350 344 341 336 340 335 326 339 225 199 176 120 95 146 136 122 130 152 184 192 193 187 190 189 181 180 179 181 187 193 206 219 287 209 199 231 195 181 81 354 31 42 53 55 6 20 358 269 132 30 110 65 155 156 161 174 171 181 208 207 196 183 178 173 170 171 174 181 186
359 354 352 353 358 360 1 3 5 5 2 360 2 2 2 1 359 355 353 350 345 341 341 9 23 7 67 131 146 181 206 123 131 111 95 131 167 199 201 201 195 196 193 187 184 181 188 197 209 219 188 336 230 218 199 162 165 122 4 31 55 56 52 31 36 30 51 65 17 330 325 193 161 160 181 184 206 211 199 188 178 175 172 171 173 176 182 185
353 348 348 351 354 355 355 357 360 360 358 356 357 358 358 357 356 355 352 349 346 347 4 49 60 53 109 132 111 163 204 138 117 71 48 67 236 218 211 206 201 200 193 191 189 186 195 206 224 230 185 238 242 221 161 134 154 145 97 148 74 57 55 53 69 47 43 32 15 11 21 185 178 169 177 197 223 191 182 179 175 172 172 175 177 179 184 187
350 347 346 347 349 350 349 352 354 354 355 353 351 354 356 354 353 353 352 349 350 2 34 61 66 73 99 114 76 123 165 122 90 59 34 360 243 224 216 208 205 200 190 187 187 189 201 213 231 256 262 255 279 206 157 132 240 176 142 117 88 62 58 62 174 164 51 22 21 50 32 20 169 163 170 197 185 176 174 174 173 172 174 179 181 183 186 190
354 347 344 343 344 345 345 347 348 350 352 349 348 351 352 350 348 350 350 351 2 27 56 71 70 66 59 51 66 100 157 127 79 54 17 3 255 224 210 204 206 199 187 186 187 185 192 219 303 313 291 264 283 175 162 149 159 141 119 99 87 81 65 62 150 151 72 33 23 64 34 1 34 154 192 171 167 171 169 167 171 173 177 183 186 188 188 192
356 346 341 340 340 341 343 344 346 349 350 348 346 346 347 345 343 343 346 355 19 51 67 75 66 46 28 18 41 74 144 149 78 55 22 26 96 141 191 196 202 195 187 187 187 183 180 337 334 326 307 237 146 134 137 120 134 131 119 94 70 83 65 41 90 107 62 31 19 73 54 358 9 310 210 163 165 172 168 166 172 177 181 186 188 192 194 196
356 346 340 338 337 339 341 343 345 348 347 345 344 343 341 337 336 339 345 2 34 52 52 53 39 19 3 340 256 116 143 172 153 76 40 88 118 117 133 159 185 192 190 186 182 177 323 328 326 318 313 195 148 121 119 120 128 126 117 99 18 47 52 14 19 14 15 51 42 80 48 349 348 296 204 163 166 173 169 170 175 180 185 188 192 196 198 200
358 348 343 340 338 339 341 344 346 347 346 343 342 340 338 338 341 348 355 14 41 39 28 18 4 355 348 344 211 217 207 227 215 146 96 117 128 122 121 123 137 160 177 180 181 228 311 313 318 313 311 284 129 120 127 114 113 109 69 94 28 11 12 351 1 18 42 76 82 87 13 261 263 284 187 164 166 169 168 173 179 184 188 190 194 198 202 204
359 351 345 342 340 340 341 344 346 346 344 341 342 343 345 353 5 12 13 24 33 24 12 354 346 345 342 340 238 253 250 253 250 178 152 135 134 128 128 129 127 131 141 160 183 227 274 303 318 315 314 158 135 121 108 66 63 77 16 51 61 19 288 327 353 35 66 91 213 149 215 229 271 304 175 169 170 169 169 178 183 186 189 192 195 200 206 209
360 352 346 343 340 339 340 343 345 345 342 341 346 350 355 6 10 8 14 25 25 5 350 338 335 336 328 315 248 259 258 259 267 179 168 152 143 133 133 143 133 130 141 163 191 223 264 299 313 314 97 130 133 115 55 17 26 41 21 333 360 158 262 320 349 47 76 164 190 125 178 229 278 299 204 180 178 175 175 181 187 189 190 194 197 202 209 213
360 353 346 342 338 336 336 340 344 343 341 345 352 354 356 2 1 355 356 3 358 343 336 328 326 330 325 324 262 266 266 269 259 177 188 171 160 142 130 146 133 193 190 186 205 234 275 308 325 134 122 124 129 102 50 26 354 2 73 255 281 147 279 319 339 44 66 109 240 123 145 216 274 291 247 191 187 183 181 184 189 192 192 195 200 204 208 210
1 355 348 341 336 333 332 335 341 340 341 351 356 353 351 353 355 347 344 347 338 326 319 315 314 314 301 255 297 285 296 302 227 170 174 166 164 160 167 217 300 284 239 212 234 252 277 321 141 159 112 97 111 97 71 358 300 318 57 266 256 162 162 287 309 14 46 79 201 113 105 233 270 324 325 195 195 190 187 191 193 195 196 198 201 203 206 207
3 358 351 342 334 331 329 330 336 336 341 354 356 349 347 350 346 341 358 341 329 316 310 314 323 321 276 216 251 322 329 309 242 176 169 173 178 192 217 247 315 309 230 195 244 232 220 280 118 125 32 59 126 114 134 227 221 197 174 210 252 199 178 241 299 311 7 34 175 138 137 239 274 331 360 192 196 197 195 197 198 199 199 200 202 203 205 207
2 360 355 346 335 327 324 326 329 333 341 355 355 347 344 345 338 291 334 327 316 306 308 307 310 300 255 257 278 306 320 288 223 196 184 183 187 211 234 259 289 291 144 150 227 174 171 73 53 204 231 194 192 172 173 192 172 162 170 152 159 209 228 229 307 245 197 67 164 187 176 231 276 287 340 259 194 198 202 200 200 200 200 200 201 203 204 206
359 358 356 351 340 324 320 322 323 329 337 354 359 354 355 357 360 322 328 323 303 291 297 288 284 277 274 282 288 309 327 229 209 209 192 191 202 216 233 249 268 264 122 147 189 144 139 130 213 231 216 174 203 212 169 132 127 123 129 123 123 163 258 262 26 142 201 249 223 217 180 230 277 259 321 327 197 193 201 200 198 198 197 199 199 200 203 206
355 354 352 352 345 327 316 316 318 322 330 350 4 13 24 15 16 322 326 327 318 314 305 297 288 275 275 282 283 298 320 224 213 215 204 205 207 211 220 213 181 221 275 152 145 77 104 167 233 231 210 189 204 204 154 123 109 98 128 143 105 115 243 327 329 181 189 302 287 352 334 240 336 308 305 321 233 189 197 194 196 197 195 197 198 200 203 204
353 351 348 347 346 332 311 307 310 309 318 342 0 17 27 14 358 329 322 309 312 315 307 296 283 272 272 272 273 274 264 239 223 218 212 203 198 200 194 158 130 198 290 73 99 8 37 240 248 230 200 207 211 135 143 174 150 99 123 144 119 193 156 72 269 152 113 292 308 23 355 30 2 274 284 302 296 208 196 195 199 197 193 195 197 200 200 198
351 350 347 343 343 337 314 300 300 299 302 320 337 357 5 352 345 338 321 272 300 310 301 283 273 268 267 266 268 244 220 225 232 222 211 197 192 195 181 145 132 163 71 129 158 123 284 246 247 202 166 183 222 147 146 156 157 140 137 135 175 195 159 129 237 126 84 320 62 65 6 345 261 245 274 283 277 271 197 197 203 201 197 197 200 203 200 198
347 348 346 342 339 337 325 301 293 293 284 288 306 320 336 331 333 333 317 263 291 304 294 272 263 263 263 266 256 230 217 220 232 225 205 196 185 183 191 168 128 156 218 183 162 173 236 252 231 141 151 165 173 178 155 151 218 237 172 168 184 168 151 138 154 122 53 39 82 86 26 309 253 225 253 276 273 272 221 192 200 205 201 199 200 202 202 203
343 343 344 344 337 334 332 312 293 288 273 268 282 284 309 318 323 326 319 305 296 289 277 257 260 257 250 245 224 218 216 222 236 233 203 197 188 169 183 175 143 216 226 172 148 197 255 264 236 157 165 163 161 189 183 169 182 302 221 195 170 139 135 126 124 114 33 351 225 110 96 278 264 220 231 273 309 261 260 199 197 204 203 200 197 199 202 206
339 339 339 342 338 333 333 324 304 288 272 262 260 265 297 312 323 326 331 42 324 278 249 199 213 221 218 218 202 187 205 254 242 230 206 202 198 179 145 167 168 230 207 156 148 216 254 274 219 158 161 158 173 218 213 172 138 307 240 173 132 123 129 134 134 116 123 236 270 130 140 270 297 245 223 221 236 239 262 256 216 205 206 205 201 200 201 204
336 336 335 338 339 335 332 324 310 296 282 269 249 250 288 312 327 327 348 39 323 270 177 181 185 183 203 209 185 162 122 279 217 211 204 199 198 189 187 223 207 229 192 133 26 251 222 310 42 99 109 131 175 236 223 166 138 241 235 131 123 127 128 128 117 94 167 183 278 79 119 64 293 259 216 182 202 238 244 248 236 214 210 211 208 204 202 205
333 333 331 332 336 334 327 317 309 301 284 263 244 245 277 314 324 334 57 49 300 238 176 202 188 198 202 196 192 180 172 221 140 200 203 196 192 184 201 221 191 216 198 135 238 263 207 231 148 114 87 133 197 224 188 151 125 256 140 110 115 118 115 109 92 79 159 104 45 239 155 65 270 277 252 163 198 235 231 228 232 221 214 212 213 209 205 208
329 329 328 328 330 329 322 310 306 303 281 256 239 240 267 304 320 25 84 53 282 275 242 199 193 221 192 156 201 214 244 218 118 179 186 184 191 184 207 227 190 197 229 150 212 254 243 221 199 135 117 224 222 202 171 145 112 124 108 96 96 98 99 88 92 136 52 49 268 224 183 160 276 278 11 140 205 228 224 220 223 224 219 214 214 213 209 209
325 327 326 324 326 324 316 307 302 298 278 241 218 216 254 300 12 65 75 260 261 312 342 202 221 214 156 118 230 238 233 245 161 146 157 166 191 196 200 233 181 146 269 345 234 254 272 243 214 171 183 191 116 70 116 119 119 123 104 92 92 78 69 64 60 116 59 8 281 241 180 132 306 272 211 181 217 222 209 208 217 224 224 219 215 214 212 212
322 324 324 322 322 318 311 305 295 284 266 209 190 182 175 310 70 92 206 242 277 317 347 288 263 66 139 145 254 250 215 261 201 145 156 150 182 197 172 230 208 83 5 344 289 296 322 277 218 228 179 124 91 62 77 108 116 113 98 104 97 39 22 35 352 21 68 277 282 277 153 123 259 262 238 230 250 237 201 204 210 212 218 221 217 212 212 214
321 322 323 320 316 310 301 292 275 260 232 185 175 171 156 105 62 171 234 309 337 264 301 266 282 2 110 132 250 230 173 250 218 145 156 164 167 186 187 196 184 28 338 299 287 333 326 245 277 316 148 120 101 78 60 60 68 89 108 108 91 41 14 6 332 9 129 250 278 193 127 119 248 249 259 258 254 244 227 225 223 215 213 216 215 211 211 214
320 321 322 319 314 306 291 271 250 230 197 176 166 149 110 88 220 217 240 301 238 231 208 161 314 314 162 153 260 221 179 239 222 158 146 152 188 237 253 211 160 129 269 233 295 355 328 305 351 15 157 127 106 113 127 225 130 137 136 119 117 104 69 313 279 309 266 272 305 165 151 275 278 269 268 261 261 256 244 244 243 231 218 215 214 212 210 211
320 323 323 319 314 302 283 253 224 196 178 173 156 111 101 141 232 224 233 248 252 301 346 102 319 321 173 204 248 200 189 255 190 144 143 123 154 246 276 246 167 133 131 170 235 99 39 318 338 10 239 99 86 139 159 154 144 167 143 116 141 151 144 187 215 204 216 272 334 3 181 200 225 256 246 244 276 288 269 255 242 236 227 219 216 213 209 208
322 324 324 319 306 292 274 232 205 182 173 170 140 87 150 199 245 218 216 244 298 332 307 313 57 35 304 269 276 209 192 243 164 119 155 167 175 202 209 213 195 153 127 160 240 137 86 265 270 279 226 165 161 165 136 109 105 245 113 102 165 193 144 128 170 169 154 138 301 256 245 219 210 258 263 233 268 295 302 292 254 230 222 215 214 214 210 208
324 325 330 323 304 294 261 213 196 181 173 163 122 131 197 210 211 182 192 215 40 334 329 346 62 83 303 290 297 265 193 207 178 123 205 221 197 209 204 207 193 171 157 163 210 188 77 296 289 318 24 113 174 163 139 134 145 130 121 176 230 188 120 108 152 98 90 136 229 237 270 292 322 308 305 7 23 326 307 293 267 243 223 213 214 214 212 210
328 333 342 339 324 304 234 198 187 181 175 158 130 197 210 215 191 189 193 92 278 38 64 15 340 167 256 267 289 288 229 201 205 166 217 254 226 211 207 227 198 186 189 168 183 202 128 132 296 4 61 24 92 113 93 105 126 118 185 205 203 142 82 102 128 21 45 205 273 295 258 296 341 305 313 354 337 278 264 253 264 252 233 229 226 220 217 216
333 339 352 354 346 311 184 176 178 178 172 156 169 209 203 199 191 199 234 121 303 60 91 154 244 214 138 225 274 274 152 190 235 179 177 223 248 202 169 200 202 199 202 169 121 235 110 100 298 308 111 332 19 83 68 7 77 122 181 167 127 143 149 91 132 142 124 215 289 303 285 268 211 229 288 299 237 238 247 251 265 258 242 241 239 230 223 220
336 340 352 360 12 137 148 156 172 172 161 158 213 218 208 214 232 246 259 269 158 113 127 216 224 338 249 192 242 261 182 187 199 179 164 180 236 232 171 191 199 206 197 161 136 321 97 112 277 285 254 323 10 63 117 308 12 61 73 56 61 136 162 150 145 162 153 158 241 300 328 272 229 215 215 241 247 231 223 234 260 281 280 268 257 242 226 218
338 340 350 358 21 131 141 151 166 165 150 182 201 213 244 229 256 254 243 240 194 157 219 209 174 265 260 232 233 245 229 191 174 178 196 180 209 259 246 191 140 118 156 134 119 101 74 100 188 287 324 30 14 186 169 181 159 83 58 19 350 69 132 150 87 82 126 146 189 218 293 266 250 198 192 250 273 237 200 199 269 303 315 314 289 261 237 223
347 359 360 359 39 130 139 147 159 158 137 174 205 228 254 225 242 255 239 231 230 234 226 196 183 215 234 266 255 221 221 204 167 170 214 198 186 223 231 193 163 138 119 103 94 145 128 105 138 297 358 66 239 245 182 180 173 153 157 174 173 146 126 127 332 313 104 125 163 164 219 267 261 190 227 266 278 210 153 142 168 301 326 332 325 297 255 236
359 1 12 18 131 151 140 145 164 93 132 174 243 239 257 251 232 261 251 231 227 234 226 203 208 213 203 226 240 217 189 220 192 166 204 208 188 202 218 175 160 145 119 120 185 178 148 100 100 83 266 216 253 270 207 191 173 148 139 144 149 131 117 131 194 253 149 83 130 133 195 269 268 293 314 287 266 121 112 135 178 339 347 333 330 324 286 256
347 321 54 82 170 177 145 62 327 19 197 247 282 256 259 254 219 249 263 230 218 219 212 210 210 209 218 215 215 212 191 192 198 188 208 216 205 231 220 159 147 123 98 115 222 171 106 85 82 342 304 301 302 313 349 85 105 111 35 65 132 131 126 145 170 179 150 160 162 105 263 267 282 314 322 319 314 92 119 190 230 321 1 345 339 332 309 276
337 314 272 57 215 199 178 182 210 268 295 311 352 314 273 247 219 241 247 220 219 190 151 234 216 211 230 193 165 216 204 185 226 210 184 183 205 250 208 163 147 128 138 166 179 166 158 99 99 77 358 345 340 344 346 345 47 125 300 320 68 104 99 113 118 86 104 198 155 133 234 257 280 294 267 300 324 322 286 250 264 327 4 358 356 345 323 290
342 318 296 17 43 171 148 92 148 167 319 342 339 312 299 281 272 287 274 246 240 212 192 259 236 214 237 185 156 257 217 180 244 230 151 196 239 316 177 169 161 155 193 179 160 146 140 136 120 117 135 184 223 260 271 263 243 249 314 348 63 110 114 133 111 82 147 220 142 148 222 264 288 263 240 237 271 295 281 259 291 331 344 337 346 360 348 313
4 352 331 359 45 93 86 54 47 75 87 32 333 290 353 324 306 317 305 254 256 238 222 251 260 234 266 218 202 275 257 213 269 222 177 191 228 349 152 177 219 308 157 151 141 124 102 109 126 133 159 183 196 215 227 174 125 298 309 12 30 122 114 103 100 131 194 176 170 217 207 271 293 249 223 228 226 253 271 284 334 334 336 319 295 296 316 241
27 35 354 346 5 41 61 38 27 19 327 59 238 274 354 319 311 338 351 319 326 314 238 238 313 60 269 207 182 238 239 288 27 251 210 179 223 328 47 151 294 137 143 136 122 99 93 110 148 142 172 193 184 208 242 116 145 195 195 199 246 154 120 113 158 206 170 131 271 257 184 175 268 239 203 212 217 236 271 347 8 342 343 324 264 243 231 213
5 356 21 13 336 332 36 355 353 343 304 268 217 285 351 354 357 359 329 315 334 349 356 337 4 5 301 219 171 193 272 102 73 263 237 175 9 12 27 34 43 127 144 118 49 94 107 138 196 164 177 182 164 214 259 134 162 174 170 203 222 169 158 175 210 200 160 164 244 236 176 201 253 244 184 185 186 213 240 355 344 315 321 314 257 234 227 220
354 326 342 7 316 250 280 312 317 318 304 278 264 9 360 11 16 342 286 313 331 344 23 353 314 331 331 280 148 102 21 165 186 284 244 167 93 91 87 30 54 102 122 82 35 80 106 143 209 162 116 65 138 225 166 135 122 39 224 238 226 192 199 211 222 193 174 210 233 177 188 237 250 208 137 134 153 201 216 209 296 278 269 259 240 241 242 228
5 337 333 347 317 290 306 314 319 337 331 325 42 349 316 350 9 328 285 242 292 321 12 351 298 307 327 334 104 119 179 184 185 251 204 145 140 164 164 192 166 75 57 79 34 13 93 145 202 100 86 324 331 43 104 114 130 148 306 313 20 125 232 256 210 175 180 257 301 106 181 272 259 162 122 126 161 204 201 180 223 229 225 226 225 235 238 219
341 318 330 342 317 312 332 327 343 38 342 347 47 334 317 302 343 340 294 225 212 267 333 326 297 289 318 13 68 117 232 219 216 242 236 214 231 224 209 194 169 136 79 132 143 20 83 111 45 71 93 271 320 28 78 79 83 83 301 295 221 161 209 222 207 198 186 184 93 79 301 273 248 140 124 139 169 195 202 192 176 201 226 230 226 228 228 217
334 294 282 319 299 317 358 340 357 68 259 307 9 336 300 281 310 349 324 266 237 248 315 334 306 277 305 46 40 330 313 300 282 274 270 264 260 262 263 209 170 156 150 143 121 53 119 129 129 102 129 255 302 344 99 66 47 345 278 232 195 194 224 247 260 238 197 153 126 170 241 254 185 151 146 151 171 195 207 205 194 207 232 241 236 234 232 222